Hourly Data Report for October 07, 2016

All times are specified in Local Standard Time (LST). Add 1 hour to adjust for Daylight Saving Time where and when it is observed.

GJOA HAVEN A
NUNAVUT

68°38'08.000" N
95°51'01.000" W
46.90 m
2302337
71597
YHK

Download Data

Hourly Data (October 2016)
Hourly Data Report for October 7, 2016
Temp Definition
°C
Dew Point Temp Definition
°C
Rel Hum Definition
%
Wind Dir Definition
10's deg

Wind Spd Definition
km/h
Visibility Definition
km
Stn Press Definition
kPa
Hmdx Definition


Wind Chill Definition


Weather Definition


TIME
00:00 Legend Double Dagger -2.4 -2.7 98 29 11 16.1 101.52   -6 LegendNANA
01:00 Legend Double Dagger -2.6 -2.7 99 29 11 16.1 101.55   -7 LegendNANA
02:00 Legend Double Dagger -2.6 -2.7 99 29 9 16.1 101.55   -6 LegendNANA
03:00 Legend Double Dagger -1.8 -2.2 97 30 13 16.1 101.60   -6 LegendNANA
04:00 Legend Double Dagger -1.4 -2.1 95 27 13 16.1 101.61   -6 LegendNANA
05:00 Legend Double Dagger -1.6 -2.0 97 27 13 8.1 101.66   -6 Snow
06:00 Legend Double Dagger -1.2 -1.5 98 26 11 16.1 101.70   -5 Snow
07:00 Legend Double Dagger -1.4 -1.7 98 27 15 16.1 101.71   -6 Snow
08:00 Legend Double Dagger -1.3 -1.4 99 28 9 16.1 101.75   -5 Snow
09:00 Legend Double Dagger -1.6 -2.2 96 33 15 16.1 101.79   -6 Snow
10:00 Legend Double Dagger -1.7 -2.5 94 30 8 16.1 101.83   -5 LegendNANA
11:00 Legend Double Dagger -1.6 -2.4 94 30 17 16.1 101.85   -7 LegendNANA
12:00 Legend Double Dagger -1.5 -2.8 91 31 15 16.1 101.87   -6 LegendNANA
13:00 Legend Double Dagger -1.4 -2.4 93 29 17 16.1 101.91   -7 LegendNANA
14:00 Legend Double Dagger -1.6 -2.3 95 30 17 16.1 101.94   -7 LegendNANA
15:00 Legend Double Dagger -1.9 -2.5 96 30 15 16.1 101.96   -7 LegendNANA
16:00 Legend Double Dagger -2.1 -2.7 96 30 15 16.1 101.98   -7 LegendNANA
17:00 Legend Double Dagger -2.6 -2.9 98 31 17 16.1 102.01   -8 LegendNANA
18:00 Legend Double Dagger -1.9 -2.6 95 31 15 16.1 102.00   -7 Freezing Rain
19:00 Legend Double Dagger -2.8 -3.1 98 30 15 16.1 101.99   -8 LegendNANA
20:00 Legend Double Dagger -2.5 -3.1 96 30 21 16.1 101.97   -9 LegendNANA
21:00 Legend Double Dagger -2.9 -3.5 96 30 15 16.1 101.97   -8 LegendNANA
22:00 Legend Double Dagger -2.2 -2.6 97 31 17 16.1 101.94   -8 LegendNANA
23:00 Legend Double Dagger -2.4 -3.0 96 30 13 16.1 101.93   -7 LegendNANA

Notes on Data Quality.

Legend

  • E = Estimated
  • M = Missing
  • NA = Not Available
  • ‡ = Partner data that is not subject to review by the National Climate Archives
Date modified: